Location: Newark
(43.4545°N, 5.8521°W)
Time: 23:13:26
(UTC+00:00)

N. Korean satellite - Visible Passes

Search period start: 13 November 2019 00:00
Search period end: 23 November 2019 00:00
Orbit: 456 x 506 km, 97.2° (Epoch: 12 November)

Date Brightness Start Highest point End Pass type
(mag) Time Alt. Az. Time Alt. Az. Time Alt. Az.
13 Nov 9.2 05:35:57 10° NE 05:39:01 24° E 05:42:02 10° SSE visible
13 Nov 7.6 17:45:02 10° S 17:48:31 51° W 17:52:05 10° NNW visible
14 Nov 10.2 05:11:53 10° ENE 05:13:26 12° E 05:14:59 10° ESE visible
15 Nov 6.7 06:18:02 10° NNE 06:21:46 82° E 06:25:27 10° S visible
15 Nov 9.9 18:29:07 10° SW 18:31:22 16° W 18:33:39 10° NW visible
16 Nov 8.3 05:52:51 10° NNE 05:56:21 38° E 05:59:47 10° SSE visible
16 Nov 8.7 18:02:35 10° SSW 18:05:49 31° W 18:09:07 10° NNW visible
17 Nov 9.6 05:28:06 10° NE 05:30:50 19° E 05:33:32 10° SE visible
17 Nov 7.1 17:36:46 10° S 17:40:21 66° W 17:44:02 10° NNW visible
18 Nov 6.6 06:35:19 10° N 06:38:59 59° WNW 06:42:35 10° SSW visible
19 Nov 7.1 06:09:55 10° NNE 06:13:37 64° E 06:17:14 10° S visible
19 Nov 9.6 18:20:26 10° SW 18:23:08 19° W 18:25:53 10° NW visible
20 Nov 8.7 05:44:50 10° NNE 05:48:09 30° E 05:51:25 10° SSE visible
20 Nov 8.2 17:54:11 10° SSW 17:57:36 39° W 18:01:06 10° NNW visible
21 Nov 9.9 05:20:19 10° NE 05:22:35 15° E 05:24:50 10° SE visible
21 Nov 6.7 17:28:31 10° S 17:32:10 84° WSW 17:35:54 10° NNW visible
22 Nov 6.5 06:27:07 10° N 06:30:49 75° WNW 06:34:26 10° SSW visible
22 Nov 10.1 18:38:52 10° WSW 18:40:28 12° W 18:42:05 10° WNW visible
